Tracking 27111 objects as of 28-Mar-2023
HD Live streaming from Space Station
objects crossing your sky now

BREEZE-M DEB

Track BREEZE-M DEB now!


NORAD ID: 41543
Int'l Code: 2015-075D
Perigee: 33,394.1 km
Apogee: 35,482.2 km
Inclination: 5.7 °
Period: 1,367.4 minutes
Semi major axis: 40809 km
RCS: Unknown
Launch date: December 13, 2015
Source: Commonwealth of Independent States (former USSR) (CIS)
Launch site: TYURATAM MISSILE AND SPACE COMPLEX (TTMTR)

Note: This is SATELLITE DEBRIS
Your satellite tracking list
Your tracking list is empty




NASA's NSSDC Master Catalog

Two Line Element Set (TLE):
1 41543U 15075D   23081.01240334 -.00000207  00000-0  00000-0 0  9996
2 41543   5.7149  72.2037 0255838 139.5753 222.5795  1.05309382 27620
Source of the keplerian elements: AFSPC